Torna al catalogo

STARLINK-34899

AttivoComunicazioniVLEO
NORAD 65323·PAYLOAD·🇺🇸 United States

Lanciato Aug 27, 2025 da Cape Canaveral Space Force Station

Loading…

Prossimi Passaggi (prossime 24 ore)

TLE

AggiornatoSource: CelesTrak SupGP

Epoca: Sep 14, 2026, 15:41 UTC

1 65323C 25189A   26257.65395833 -.00056746  00000+0 -18251-2 0  2573
2 65323  53.1602  47.4413 0001248  87.4855 146.7042 15.31724881    18

Traccia STARLINK-34899 in tempo reale con AllMySat

Download on the App Store